When you browse on this site, cookies collect data to enhance your experience and personalize the content and advertising you see.
Visit our Privacy Policy to learn more. By continuing to use the site, you agree to this use of cookies and data.
  • In Österreich
  • Länderverzeichnis
  • Für 7 Tage
  • Wassertemperatur
  • Wetterkarte
  • News
  • Widgets
  • user-avatar
    Anmelden

    Stündliche Wetter Sasaima

    Heute, 17 September, Dienstag

    Zeit Temperatur Niederschläge Wind Luftdruck Luftfeuchtigkeit
    00:00 +15°C° 0.2 mm 1 m/S 601 mmHg 88%
    01:00 +14°C° 0.2 mm 1 m/S 600 mmHg 89%
    02:00 +14°C° 0.3 mm 1 m/S 600 mmHg 88%
    03:00 +14°C° 0.3 mm 1 m/S 600 mmHg 88%
    04:00 +14°C° 0.3 mm 1 m/S 600 mmHg 88%
    05:00 +14°C° 0.2 mm 1 m/S 600 mmHg 86%
    06:00 +15°C° 0.2 mm 1 m/S 601 mmHg 84%
    07:00 +16°C° 0.2 mm 1 m/S 602 mmHg 82%
    08:00 +18°C° 0.4 mm 1 m/S 603 mmHg 77%
    09:00 +20°C° 0.4 mm 1 m/S 603 mmHg 72%
    10:00 +22°C° 0.4 mm 1 m/S 604 mmHg 67%
    11:00 +23°C° 0.6 mm 1 m/S 603 mmHg 66%
    12:00 +23°C° 0.6 mm 2 m/S 603 mmHg 65%
    13:00 +24°C° 0.6 mm 2 m/S 602 mmHg 64%
    14:00 +23°C° 0.8 mm 2 m/S 602 mmHg 64%
    15:00 +23°C° 0.8 mm 1 m/S 601 mmHg 64%
    16:00 +23°C° 0.8 mm 1 m/S 601 mmHg 64%
    17:00 +21°C° 1.7 mm 1 m/S 601 mmHg 72%
    18:00 +20°C° 1.7 mm 1 m/S 600 mmHg 79%
    19:00 +18°C° 1.7 mm 1 m/S 600 mmHg 87%
    20:00 +16°C° 0.9 mm 1 m/S 600 mmHg 87%
    21:00 +16°C° 0.9 mm 1 m/S 601 mmHg 87%
    22:00 +16°C° 0.9 mm 1 m/S 601 mmHg 87%
    23:00 +15°C° 0.9 mm 1 m/S 601 mmHg 89%

    Morgen, 18 September, Mittwoch

    Zeit Temperatur Niederschläge Wind Luftdruck Luftfeuchtigkeit
    00:00 +15°C° 0.9 mm 1 m/S 601 mmHg 90%
    01:00 +15°C° 0.9 mm 1 m/S 600 mmHg 91%
    02:00 +15°C° 1.3 mm 1 m/S 600 mmHg 93%
    03:00 +14°C° 1.3 mm 0 m/S 600 mmHg 94%
    04:00 +13°C° 1.3 mm 0 m/S 600 mmHg 95%
    05:00 +14°C° 0.9 mm 0 m/S 600 mmHg 95%
    06:00 +14°C° 0.9 mm 0 m/S 601 mmHg 95%
    07:00 +14°C° 0.9 mm 0 m/S 601 mmHg 94%
    08:00 +14°C° 0.3 mm 0 m/S 601 mmHg 92%
    09:00 +14°C° 0.3 mm 0 m/S 602 mmHg 91%
    10:00 +15°C° 0.3 mm 0 m/S 602 mmHg 89%
    11:00 +19°C° 0.1 mm 1 m/S 602 mmHg 80%
    12:00 +20°C° 0.1 mm 1 m/S 602 mmHg 72%
    13:00 +21°C° 0.1 mm 2 m/S 602 mmHg 63%
    14:00 +21°C° 0.2 mm 2 m/S 601 mmHg 63%
    15:00 +21°C° 0.2 mm 2 m/S 601 mmHg 64%
    16:00 +21°C° 0.2 mm 2 m/S 600 mmHg 64%
    17:00 +20°C° 0.4 mm 1 m/S 600 mmHg 73%
    18:00 +19°C° 0.4 mm 1 m/S 600 mmHg 81%
    19:00 +15°C° 0.4 mm 0 m/S 599 mmHg 90%
    20:00 +16°C° 1.3 mm 1 m/S 600 mmHg 91%
    21:00 +16°C° 1.3 mm 1 m/S 600 mmHg 91%
    22:00 +15°C° 1.3 mm 1 m/S 600 mmHg 92%
    23:00 +15°C° 0.5 mm 1 m/S 600 mmHg 92%

    übermorgen, 19 September, Donnerstag

    Zeit Temperatur Niederschläge Wind Luftdruck Luftfeuchtigkeit
    00:00 +15°C° 0.5 mm 1 m/S 600 mmHg 91%
    01:00 +15°C° 0.5 mm 1 m/S 600 mmHg 90%
    02:00 +15°C° 0 mm 1 m/S 600 mmHg 90%
    03:00 +15°C° 0 mm 1 m/S 599 mmHg 89%
    04:00 +15°C° 0 mm 1 m/S 599 mmHg 88%
    05:00 +14°C° 0 mm 0 m/S 600 mmHg 87%
    06:00 +14°C° 0 mm 0 m/S 600 mmHg 86%
    07:00 +15°C° 0 mm 0 m/S 601 mmHg 85%
    08:00 +16°C° 0.1 mm 0 m/S 601 mmHg 81%
    09:00 +19°C° 0.1 mm 1 m/S 602 mmHg 77%
    10:00 +20°C° 0.1 mm 1 m/S 602 mmHg 74%
    11:00 +21°C° 0.5 mm 1 m/S 602 mmHg 73%
    12:00 +21°C° 0.5 mm 1 m/S 601 mmHg 72%
    13:00 +21°C° 0.5 mm 2 m/S 601 mmHg 71%
    14:00 +21°C° 1.4 mm 1 m/S 600 mmHg 76%
    15:00 +21°C° 1.4 mm 1 m/S 600 mmHg 80%
    16:00 +20°C° 1.4 mm 1 m/S 599 mmHg 84%
    17:00 +19°C° 2 mm 1 m/S 599 mmHg 88%
    18:00 +18°C° 2 mm 1 m/S 599 mmHg 91%
    19:00 +16°C° 2 mm 1 m/S 599 mmHg 94%
    20:00 +16°C° 0.7 mm 1 m/S 600 mmHg 95%
    21:00 +15°C° 0.7 mm 1 m/S 600 mmHg 95%
    22:00 +15°C° 0.7 mm 1 m/S 600 mmHg 95%
    23:00 +15°C° 0.3 mm 1 m/S 600 mmHg 95%

    20 September, Freitag

    Zeit Temperatur Niederschläge Wind Luftdruck Luftfeuchtigkeit
    00:00 +15°C° 0.3 mm 1 m/S 600 mmHg 95%
    01:00 +15°C° 0.3 mm 1 m/S 600 mmHg 95%
    02:00 +14°C° 1 mm 1 m/S 600 mmHg 95%
    03:00 +14°C° 1 mm 1 m/S 600 mmHg 95%
    04:00 +13°C° 1 mm 0 m/S 600 mmHg 95%
    05:00 +13°C° 2.2 mm 0 m/S 600 mmHg 95%
    06:00 +13°C° 2.2 mm 0 m/S 601 mmHg 96%
    07:00 +13°C° 2.2 mm 0 m/S 602 mmHg 96%
    08:00 +14°C° 1.1 mm 0 m/S 602 mmHg 95%
    09:00 +14°C° 1.1 mm 0 m/S 602 mmHg 94%
    10:00 +15°C° 1.1 mm 0 m/S 603 mmHg 93%
    11:00 +16°C° 0.7 mm 1 m/S 602 mmHg 93%
    12:00 +16°C° 0.7 mm 1 m/S 602 mmHg 92%
    13:00 +16°C° 0.7 mm 1 m/S 602 mmHg 91%
    14:00 +18°C° 0.5 mm 1 m/S 601 mmHg 90%
    15:00 +18°C° 0.5 mm 1 m/S 601 mmHg 88%
    16:00 +18°C° 0.5 mm 1 m/S 601 mmHg 87%
    17:00 +16°C° 0.1 mm 1 m/S 601 mmHg 88%
    18:00 +15°C° 0.1 mm 1 m/S 600 mmHg 89%
    19:00 +14°C° 0.1 mm 1 m/S 600 mmHg 91%
    20:00 +14°C° 0 mm 1 m/S 601 mmHg 89%
    21:00 +14°C° 0 mm 1 m/S 601 mmHg 88%
    22:00 +14°C° 0 mm 1 m/S 601 mmHg 86%
    23:00 +14°C° 0 mm 1 m/S 601 mmHg 87%

    21 September, Samstag

    Zeit Temperatur Niederschläge Wind Luftdruck Luftfeuchtigkeit
    00:00 +13°C° 0 mm 1 m/S 601 mmHg 87%
    01:00 +13°C° 0 mm 1 m/S 601 mmHg 87%
    02:00 +13°C° 0 mm 1 m/S 600 mmHg 87%
    03:00 +13°C° 0 mm 1 m/S 600 mmHg 87%
    04:00 +13°C° 0 mm 1 m/S 600 mmHg 88%
    05:00 +13°C° 0 mm 1 m/S 601 mmHg 86%
    06:00 +14°C° 0 mm 1 m/S 602 mmHg 84%
    07:00 +14°C° 0 mm 0 m/S 602 mmHg 81%
    08:00 +18°C° 0 mm 1 m/S 603 mmHg 75%
    09:00 +20°C° 0 mm 1 m/S 604 mmHg 69%
    10:00 +22°C° 0 mm 1 m/S 604 mmHg 63%
    11:00 +22°C° 0.6 mm 1 m/S 604 mmHg 62%
    12:00 +23°C° 0.6 mm 1 m/S 603 mmHg 62%
    13:00 +23°C° 0.6 mm 2 m/S 603 mmHg 61%
    14:00 +23°C° 0.9 mm 1 m/S 602 mmHg 62%
    15:00 +23°C° 0.9 mm 1 m/S 602 mmHg 64%
    16:00 +22°C° 0.9 mm 1 m/S 601 mmHg 65%
    17:00 +21°C° 0.9 mm 1 m/S 601 mmHg 71%
    18:00 +19°C° 0.9 mm 1 m/S 601 mmHg 77%
    19:00 +16°C° 0.9 mm 1 m/S 600 mmHg 83%
    20:00 +15°C° 0.4 mm 1 m/S 601 mmHg 83%
    21:00 +15°C° 0.4 mm 1 m/S 601 mmHg 83%
    22:00 +15°C° 0.4 mm 1 m/S 601 mmHg 83%
    23:00 +14°C° 0.2 mm 1 m/S 601 mmHg 83%

    22 September, Sonntag

    Zeit Temperatur Niederschläge Wind Luftdruck Luftfeuchtigkeit
    00:00 +14°C° 0.2 mm 1 m/S 600 mmHg 84%
    01:00 +13°C° 0.2 mm 1 m/S 600 mmHg 85%
    02:00 +13°C° 0.2 mm 1 m/S 600 mmHg 85%
    03:00 +13°C° 0.2 mm 1 m/S 600 mmHg 84%
    04:00 +13°C° 0.2 mm 1 m/S 600 mmHg 84%
    05:00 +14°C° 0.1 mm 1 m/S 600 mmHg 82%
    06:00 +14°C° 0.1 mm 1 m/S 601 mmHg 80%
    07:00 +15°C° 0.1 mm 1 m/S 602 mmHg 79%
    08:00 +18°C° 0.3 mm 1 m/S 603 mmHg 75%
    09:00 +20°C° 0.3 mm 1 m/S 603 mmHg 71%
    10:00 +22°C° 0.3 mm 1 m/S 604 mmHg 67%
    11:00 +22°C° 0.7 mm 1 m/S 603 mmHg 67%
    12:00 +22°C° 0.7 mm 1 m/S 603 mmHg 68%
    13:00 +22°C° 0.7 mm 1 m/S 602 mmHg 69%
    14:00 +22°C° 1.3 mm 1 m/S 602 mmHg 70%
    15:00 +22°C° 1.3 mm 1 m/S 601 mmHg 72%
    16:00 +22°C° 1.3 mm 1 m/S 601 mmHg 73%
    17:00 +20°C° 1 mm 1 m/S 601 mmHg 78%
    18:00 +18°C° 1 mm 1 m/S 600 mmHg 82%
    19:00 +16°C° 1 mm 1 m/S 600 mmHg 87%
    20:00 +15°C° 1.2 mm 1 m/S 601 mmHg 88%
    21:00 +15°C° 1.2 mm 1 m/S 601 mmHg 90%
    22:00 +15°C° 1.2 mm 1 m/S 601 mmHg 91%
    23:00 +15°C° 0.3 mm 1 m/S 601 mmHg 91%
    Mehr zeigen